New Roads False River Regiona, LA

5:04 AM CDT on September 18, 2019 (GMT -0500)
False River

Weather History for KHZR - August, 2019

Change the Weather History Date:

Sunday, August 25, 2019

  Actual Average (KBTR) Record (KBTR)
Temperature  
Mean Temperature 76 °F -  
Max Temperature 78 °F 90 °F 102 °F (1921)
Min Temperature 75 °F 71 °F 63 °F (1997)
Cooling Degree Days 12    
Growing Degree Days 26 (Base 50)    
Moisture  
Dew Point 75 °F    
Average Humidity 96    
Maximum Humidity 100    
Minimum Humidity 83    
Precipitation  
Precipitation 0.01 in - - ()
Sea Level Pressure  
Sea Level Pressure 29.91 in    
Wind  
Wind Speed 4 mph ()    
Max Wind Speed 14 mph    
Max Gust Speed 18 mph    
Visibility 9.6 miles    
Events Rain    
Averages and records for this station are not official NWS values.
T = Trace of Precipitation, MM = Missing Value Source: Averaged Metar Reports

Daily Weather History Graph

Daily Weather History Graph

Search for Another Location

Airport or City:

Astronomy

Aug. 25, 2019 Rise Set
Actual Time 6:38 AM CDT 7:37 PM CDT
Civil Twilight 6:13 AM CDT 8:02 PM CDT
Nautical Twilight 5:43 AM CDT 8:31 PM CDT
Astronomical Twilight 5:13 AM CDT 9:01 PM CDT
Moon 1:25 AM CDT (8/25) 3:45 PM CDT (8/25)
Length of Visible Light 13h 48m
Length of Day
12h 59m
Waning Crescent, 29% of the Moon is Illuminated
Aug 25
Waning Crescent
Aug 30
New
Sep 5
First Quarter
Sep 13
Full
Sep 21
Last Quarter

Hourly Weather History & Observations

Time (CDT) Temp. Dew Point Humidity Pressure Visibility Wind Dir Wind Speed Gust Speed Precip Events Conditions
12:16 AM 75.2 °F 75.2 °F 100% 29.96 in 10.0 mi East 3.5 mph - N/A   Overcast
12:36 AM 75.2 °F 75.2 °F 100% 29.96 in 10.0 mi East 3.5 mph - N/A   Overcast
1:16 AM 75.2 °F 75.2 °F 100% 29.96 in 10.0 mi Calm Calm - N/A   Mostly Cloudy
1:36 AM 75.2 °F 75.2 °F 100% 29.95 in 10.0 mi Calm Calm - N/A   Scattered Clouds
1:56 AM 75.2 °F 75.2 °F 100% 29.94 in 10.0 mi Calm Calm - N/A   Clear
2:16 AM 75.2 °F 75.2 °F 100% 29.94 in 10.0 mi Calm Calm - N/A   Clear
2:36 AM 75.2 °F 75.2 °F 100% 29.94 in 10.0 mi Calm Calm - N/A   Clear
2:56 AM 75.2 °F 75.2 °F 100% 29.94 in 10.0 mi Calm Calm - N/A   Scattered Clouds
3:16 AM 75.2 °F 75.2 °F 100% 29.94 in 10.0 mi Calm Calm - N/A   Mostly Cloudy
3:58 AM 75.2 °F 73.4 °F 94% 29.92 in 10.0 mi ESE 4.6 mph - N/A   Scattered Clouds
4:16 AM 75.2 °F 73.4 °F 94% 29.92 in 10.0 mi ESE 3.5 mph - N/A   Clear
4:36 AM 75.2 °F 73.4 °F 94% 29.92 in 10.0 mi SE 4.6 mph - N/A   Scattered Clouds
4:56 AM 75.2 °F 73.4 °F 94% 29.92 in 10.0 mi SE 4.6 mph - N/A   Scattered Clouds
5:16 AM 75.2 °F 73.4 °F 94% 29.92 in 10.0 mi SE 3.5 mph - N/A   Scattered Clouds
5:36 AM 75.2 °F 73.4 °F 94% 29.92 in 10.0 mi Calm Calm - N/A   Scattered Clouds
5:56 AM 75.2 °F 73.4 °F 94% 29.92 in 10.0 mi Calm Calm - N/A   Light Drizzle
6:36 AM 75.2 °F 73.4 °F 94% 29.91 in 10.0 mi East 3.5 mph - N/A   Clear
6:56 AM 75.2 °F 73.4 °F 94% 29.92 in 7.0 mi NE 3.5 mph - N/A   Scattered Clouds
7:16 AM 75.2 °F 75.2 °F 100% 29.92 in 7.0 mi Calm Calm - N/A   Mostly Cloudy
7:36 AM 75.2 °F 75.2 °F 100% 29.92 in 10.0 mi Calm Calm - N/A   Scattered Clouds
7:58 AM 75.2 °F 75.2 °F 100% 29.93 in 10.0 mi Calm Calm - N/A   Scattered Clouds
8:36 AM 75.2 °F 75.2 °F 100% 29.95 in 10.0 mi SE 5.8 mph - N/A   Scattered Clouds
8:56 AM 75.2 °F 75.2 °F 100% 29.95 in 10.0 mi SE 5.8 mph - N/A   Overcast
9:16 AM 75.2 °F 75.2 °F 100% 29.96 in 10.0 mi SSE 4.6 mph - N/A   Overcast
9:36 AM 77.0 °F 75.2 °F 94% 29.96 in 10.0 mi SSE 5.8 mph - N/A   Overcast
9:56 AM 77.0 °F 73.4 °F 89% 29.96 in 10.0 mi South 3.5 mph - N/A   Overcast
10:19 AM 75.2 °F 73.4 °F 94% 29.97 in 7.0 mi SSE 8.1 mph - N/A Rain Rain
10:36 AM 77.0 °F 75.2 °F 94% 29.97 in 10.0 mi SSE 4.6 mph - N/A   Overcast
10:56 AM 77.0 °F 73.4 °F 89% 29.96 in 10.0 mi SE 8.1 mph - N/A   Overcast
11:56 AM 78.8 °F 73.4 °F 83% 29.95 in 10.0 mi SE 9.2 mph - N/A Rain Light Rain
12:38 PM 77.0 °F 75.2 °F 94% 29.94 in 2.5 mi SSE 8.1 mph - 0.01 in Rain Rain
12:56 PM 77.0 °F 75.2 °F 94% 29.94 in 7.0 mi SSE 9.2 mph - 0.01 in   Overcast
1:19 PM 77.0 °F 75.2 °F 94% 29.93 in 10.0 mi SE 8.1 mph - N/A   Overcast
3:36 PM 78.8 °F 73.4 °F 83% 29.86 in 10.0 mi South 13.8 mph 18.4 mph N/A   Overcast
3:56 PM 77.0 °F 73.4 °F 89% 29.86 in 10.0 mi South 9.2 mph - N/A   Overcast
4:18 PM 77.0 °F 73.4 °F 89% 29.87 in 10.0 mi South 6.9 mph - N/A   Overcast
5:17 PM 75.2 °F 75.2 °F 100% 29.86 in 7.0 mi SSE 5.8 mph - N/A   Overcast
5:36 PM 75.2 °F 75.2 °F 100% 29.86 in 10.0 mi SE 3.5 mph - N/A   Overcast
5:56 PM 75.2 °F 75.2 °F 100% 29.86 in 10.0 mi SSE 3.5 mph - N/A   Overcast
6:16 PM 75.2 °F 75.2 °F 100% 29.85 in 10.0 mi SSE 5.8 mph - N/A   Overcast
6:39 PM 75.2 °F 75.2 °F 100% 29.84 in 10.0 mi SE 6.9 mph - N/A   Overcast
6:56 PM 75.2 °F 75.2 °F 100% 29.84 in 10.0 mi SE 6.9 mph - N/A   Overcast
7:16 PM 75.2 °F 75.2 °F 100% 29.84 in 10.0 mi South 6.9 mph - N/A   Overcast
7:38 PM 75.2 °F 73.4 °F 94% 29.84 in 10.0 mi South 6.9 mph - N/A   Overcast
7:56 PM 75.2 °F 75.2 °F 100% 29.85 in 10.0 mi South 9.2 mph - N/A   Overcast
8:18 PM 75.2 °F 75.2 °F 100% 29.85 in 10.0 mi South 8.1 mph - N/A   Overcast
8:36 PM 75.2 °F 75.2 °F 100% 29.86 in 10.0 mi SSE 9.2 mph - N/A   Overcast
8:56 PM 75.2 °F 75.2 °F 100% 29.86 in 10.0 mi South 6.9 mph - N/A   Overcast
9:18 PM 75.2 °F 75.2 °F 100% 29.86 in 10.0 mi South 5.8 mph - N/A Rain Light Rain
9:38 PM 75.2 °F 75.2 °F 100% 29.86 in 10.0 mi South 6.9 mph - N/A   Overcast
9:56 PM 75.2 °F 75.2 °F 100% 29.87 in 10.0 mi South 4.6 mph - N/A   Overcast
10:36 PM 77.0 °F 75.2 °F 94% 29.88 in 10.0 mi South 4.6 mph - N/A   Overcast
10:56 PM 77.0 °F 75.2 °F 94% 29.88 in 10.0 mi SSE 4.6 mph - N/A   Overcast
11:16 PM 77.0 °F 75.2 °F 94% 29.89 in 10.0 mi SSE 4.6 mph - N/A   Overcast
11:36 PM 77.0 °F 75.2 °F 94% 29.88 in 10.0 mi South 5.8 mph - N/A   Overcast
11:56 PM 77.0 °F 75.2 °F 94% 29.88 in 10.0 mi SSE 5.8 mph - N/A   Overcast